Flag for China Weather past 2 weeks in Chengdu, Sichuan, China

Now
43 °F

Light rain. Fog.


Feels Like: 38 °F
Forecast: 42 / 59 °F
Wind: 8 mph from North

Location: Chengdu Airport

Current Time: Mar 5, 2015 at 8:54:33 AM

Latest Report: Mar 5, 2015 at 8:00 AM


Visibility: 2 mi

Pressure: 30.09 "Hg

Humidity: 87%

Dew point: 39 °F

Location of ChengduLocation

Historic Weather in Chengdu — Graph

°F

Chengdu temperature yesterday

Maximum temperature yesterday: 48 °F (at 12:00 AM)
Minimum temperature yesterday: 45 °F (at 9:00 AM)
Average temperature yesterday: 46 °F

Past Weeks' High & Low Weather Summary

 TemperatureHumidityPressure
High66 °F (Feb 18, 2:00 PM)94% (Feb 27, 2:00 PM)30.45 "Hg (Feb 27, 2:00 PM)
Low41 °F (Feb 24, 7:00 AM)23% (Mar 3, 2:00 PM)29.71 "Hg (Feb 24, 3:00 PM)
Average53 °F66%29.99 "Hg
* Reported Feb 18 7:00 AM — Mar 5 7:00 AM, Chengdu, Weather by CustomWeather, © 2015

Note: Actual official high and low records may vary slightly from our data, if they occured in-between our weather recording intervals... More about our weather records

Advertising

Chengdu weather history for previous 24 hours

 ConditionsComfort  
Time TempWeatherWind HumidityBarometerVisibility
7:00 AM
Thu, Mar 5
43 °FLight rain. Fog.8 mph87%30.09 "Hg2 mi
6:00 AM43 °FLight rain. Fog.6 mph87%30.07 "Hg3 mi
5:00 AM43 °FLight rain. Fog.8 mph93%30.07 "Hg3 mi
4:00 AM43 °FLight rain. Fog.8 mph93%30.07 "Hg3 mi
3:00 AM43 °FLight rain. Fog.8 mph93%30.07 "Hg2 mi
2:00 AM45 °FLight rain. Fog.10 mph87%30.07 "Hg3 mi
1:00 AM45 °FLight rain. Fog.6 mph93%30.07 "Hg2 mi
12:00 AM45 °FLight rain. Fog.3 mph93%30.07 "Hg3 mi
11:00 PM
Wed, Mar 4
45 °FLight rain. Passing clouds.3 mph93%30.04 "Hg4 mi
10:00 PM46 °FLight rain. Fog.3 mph87%30.04 "Hg2 mi
9:00 PM46 °FLight rain. Fog.3 mph87%30.01 "Hg2 mi
8:00 PM46 °FLight rain. Fog.3 mph87%29.98 "Hg1 mi
7:00 PM46 °FLight rain. Fog.1 mph87%29.92 "Hg1 mi
6:00 PM46 °FLight rain. Fog.6 mph87%29.89 "Hg2 mi
5:00 PM46 °FLight rain. Scattered clouds.8 mph82%29.89 "Hg5 mi
4:00 PM46 °FLight rain. Scattered clouds.8 mph82%29.89 "Hg4 mi
3:00 PM46 °FScattered clouds.6 mph82%29.89 "Hg4 mi
2:00 PM46 °FLight rain. Fog.3 mph87%29.92 "Hg3 mi
1:00 PM45 °FLight rain. Fog.6 mph87%29.95 "Hg2 mi
12:00 PM45 °FLight rain. Fog.3 mph87%30.01 "Hg2 mi
11:00 AM45 °FLight rain. Fog.3 mph87%30.01 "Hg1 mi
10:00 AM45 °FLight rain. Fog.3 mph87%30.01 "Hg1 mi
9:00 AM45 °FLight rain. Fog.1 mph87%30.01 "Hg1 mi
8:00 AM46 °FLight rain. Scattered clouds.3 mph76%29.98 "Hg4 mi
Weather by CustomWeather, © 2015

See weather overviewHow to use our weather pages